Weather Roundup
Issued by NWS Chicago, IL

Home | Current Version | Previous Version | Graphics & Text | Print | Product List | Glossary On
Versions: 1 2 3 4 5 6 7 8 9 10 11 12 13 14 15 16 17 18 19 20 21 22 23 24 25 26 27 28 29 30 31 32 33 34 35 36 37 38 39 40 41 42 43 44 45 46 47 48 49 50
000
NZUS59 KLOT 101308
HRRLOT

CHICAGO AREA WEATHER ROUNDUP
NATIONAL WEATHER SERVICE CHICAGO/ROMEOVILLE IL
700 AM CST WED FEB 10 2016

NOTE: "FAIR" INDICATES FEW OR NO CLOUDS BELOW 12,000 FEET WITH NO
SIGNIFICANT WEATHER AND/OR OBSTRUCTIONS TO VISIBILITY.

* THESE STATIONS ARE NOT UNDER NWS QUALITY CONTROL. THEY ALSO MAY NOT
  REPORT WEATHER SUCH AS PRECIPITATION OR FOG.

ILZ005-006-012>014-019>023-101400-
NORTHEAST ILLINOIS

CITY           SKY/WX    TMP DP  RH WIND       PRES   REMARKS
OHARE          PTCLDY     9   0  67 NW9       29.98F WCI  -4
MIDWAY         PTCLDY    11  -1  58 NW8       29.99F WCI  -1
AURORA         CLOUDY    10   3  73 W13       30.02R WCI  -5
LANSING*       CLEAR     10   1  65 NW6G16    29.99F WCI   1
JOLIET*        CLEAR      9   2  75 W5        30.03S WCI   0
WAUKEGAN       PTCLDY     7   0  73 NW6       29.97S WCI  -3
DUPAGE AIRPORT PTCLDY     5  -2  72 W7        29.99S WCI  -7
WHEELING       CLEAR      9   0  67 NW8       29.99F WCI  -3
KANKAKEE*      CLEAR      9   2  73 W9        30.02F WCI  -4
MORRIS*        CLEAR      7   1  78 W9        30.01R WCI  -7
LEWIS AIRPORT* CLEAR      7   1  76 W9        30.01S WCI  -6
$$

WIZ051-052-058>065-066-070>072-101400-
SOUTHEAST WISCONSIN

CITY           SKY/WX    TMP DP  RH WIND       PRES   REMARKS
MILWAUKEE      PTCLDY     9   0  67 NW9       29.97S WCI  -4
KENOSHA*       CLEAR      8  -1  66 NW7       29.97S WCI  -3
RACINE*        CLEAR      8  -1  66 NW3       29.98F
BURLINGTON     PTCLDY     3  -3  75 NW6       29.97R WCI  -8
WAUKESHA       MOCLDY     5  -2  72 NW9       29.97R WCI  -9
WEST BEND      PTCLDY     7  -2  66 CALM      29.96R
$$

INZ001>003-010>013-019-020-101400-
NORTHWEST INDIANA

CITY           SKY/WX    TMP DP  RH WIND       PRES   REMARKS
GARY*          MOCLDY    12   0  57 W14       30.00R WCI  -3
MICHIGAN CITY* NOT AVBL
RENSSELAER*    NOT AVBL
VALPARAISO     LGT SNOW  13   5  70 W14       29.96R WCI  -2
$$

LMZ740>746-101400-
SOUTHERN LAKE MICHIGAN

STATION/POSITION TIME  SKY/WX   TEMP WIND        PRES    VSBY
                                AIR  DIR/SP/G
                 (UTC)          (F)  (DEG/KT/KT) (MB)    (MI)
HARRISON CRIB    1200            13  320/ 19/ 23   N/A
BURNHAM HARBOR   1300            12  320/ 13/ 18   N/A
CALUMET HARBOR   1200            11  290/  8/ 12 1015.2R
BURNS HARBOR     1200            17  320/ 17/ 25 1014.9R
MICHIGAN CITY    1200            18  270/ 23/ 25   N/A
$$

ABBREVIATIONS USED IN REMARKS
   TC - TEMPERATURE IN CELSIUS
  WCI - WIND CHILL INDEX
   HX - HEAT INDEX
  VSB - VISIBILITY
$$



USA.gov is the U.S. government's official web portal to all federal, state and local government web resources and services.